Location: Clarion
(42.7316°N, 93.7330°W)
Time: 09:15:12
(UTC+00:00)

Cosmos 1153 Rocket - Pass Details

Date: 22 April 2026
Orbit: 954 x 1005 km, 82.9° (Epoch: 17 May)

Event Time Altitude Azimuth Distance (km) Brightness Sun altitude
Exits shadow 03:55:56 59° 94° (E) 1,112 4.5 -26.7°
Maximum altitude 03:55:58 59° 93° (E) 1,112 4.5 -26.7°
Drops below altitude 10° 04:02:06 10° 15° (NNE) 2,742 7.3 -27.4°
Sets 04:04:40 0° 12° (NNE) 3,702 8.1 -27.7°
